Location: Carrières
(48.9495°N, 2.0407°E)
Time: 18:24:31
(UTC+00:00)

Transit 4A - All Passes

Search period start: 23 April 2024 00:00
Search period end: 03 May 2024 00:00
Orbit: 871 x 971 km, 66.8° (Epoch: 22 April)

Date Brightness Start Highest point End Pass type
(mag) Time Alt. Az. Time Alt. Az. Time Alt. Az.
23 Apr - 10:19:19 10° SE 10:22:09 14° ESE 10:24:58 10° ENE daylight
23 Apr - 12:01:32 10° SSW 12:07:30 74° ESE 12:13:22 10° NE daylight
23 Apr - 13:49:12 10° W 13:54:22 30° NW 13:59:29 10° NNE daylight
23 Apr - 15:39:37 10° NW 15:42:42 14° N 15:45:47 10° NNE daylight
23 Apr - 17:28:04 10° NNW 17:31:36 16° NNE 17:35:08 10° NE daylight
23 Apr - 19:14:09 10° NNW 19:19:37 40° NE 19:25:06 10° ESE daylight
23 Apr - 21:00:30 10° NW 21:06:05 48° WSW 21:11:42 10° S visible
24 Apr - 10:26:39 10° SSE 10:30:53 20° ESE 10:35:03 10° ENE daylight
24 Apr - 12:10:34 10° SW 12:16:33 82° NW 12:22:27 10° NE daylight
24 Apr - 13:59:00 10° W 14:03:45 24° NNW 14:08:28 10° NNE daylight
24 Apr - 15:49:30 10° NW 15:52:19 13° N 15:55:08 10° NNE daylight
24 Apr - 17:37:09 10° NNW 17:41:09 18° NNE 17:45:08 10° ENE daylight
24 Apr - 19:23:09 10° NNW 19:28:51 52° NE 19:34:33 10° SE visible
24 Apr - 21:09:47 10° NW 21:14:59 34° WSW 21:20:11 10° S visible
25 Apr - 10:34:38 10° SSE 10:39:40 29° ESE 10:44:39 10° NE daylight
25 Apr - 12:19:46 10° SW 12:25:40 61° NW 12:31:29 10° NNE daylight
25 Apr - 14:08:54 10° WNW 14:13:11 20° NNW 14:17:27 10° NNE daylight
25 Apr - 15:59:12 10° NNW 16:01:57 13° N 16:04:41 10° NNE daylight
25 Apr - 17:46:09 10° NNW 17:50:37 22° NNE 17:55:04 10° ENE daylight
25 Apr - 19:32:09 10° NNW 19:37:59 71° NE 19:43:51 10° SE visible
25 Apr - 21:19:15 10° WNW 21:23:48 24° WSW 21:28:22 10° SSW visible
26 Apr - 10:43:00 10° S 10:48:32 41° ESE 10:54:00 10° NE daylight
26 Apr - 12:29:09 10° WSW 12:34:51 46° NW 12:40:29 10° NNE daylight
26 Apr - 14:18:53 10° WNW 14:22:42 17° NNW 14:26:29 10° NNE daylight
26 Apr - 16:08:40 10° NNW 16:11:34 14° N 16:14:28 10° NE daylight
26 Apr - 17:55:08 10° NNW 18:00:02 27° NNE 18:04:56 10° E daylight
26 Apr - 19:41:12 10° NW 19:47:04 86° WSW 19:52:57 10° SSE visible
26 Apr - 21:29:03 10° WNW 21:32:33 16° WSW 21:36:03 10° SW visible
27 Apr - 10:51:37 10° SSW 10:57:28 58° ESE 11:03:13 10° NE daylight
27 Apr - 12:38:42 10° WSW 12:44:06 35° NW 12:49:28 10° NNE daylight
27 Apr - 14:28:54 10° NW 14:32:15 15° NNW 14:35:35 10° NNE daylight
27 Apr - 16:17:55 10° NNW 16:21:10 15° NNE 16:24:24 10° NE daylight
27 Apr - 18:04:06 10° NNW 18:09:23 33° NE 18:14:39 10° ESE daylight
27 Apr - 19:50:19 10° NW 19:56:04 62° WSW 20:01:51 10° SSE visible
27 Apr - 21:40:06 10° W 21:41:13 11° W 21:42:21 10° WSW visible
28 Apr - 09:17:40 10° SE 09:21:01 15° ESE 09:24:19 10° ENE daylight
28 Apr - 11:00:30 10° SSW 11:06:27 81° ESE 11:12:21 10° NE daylight
28 Apr - 12:48:24 10° W 12:53:25 28° NW 12:58:25 10° NNE daylight
28 Apr - 14:38:52 10° NW 14:41:50 14° N 14:44:49 10° NNE daylight
28 Apr - 16:27:03 10° NNW 16:30:44 17° NNE 16:34:23 10° ENE daylight
28 Apr - 18:13:05 10° NNW 18:18:39 43° NE 18:24:13 10° ESE daylight
28 Apr - 19:59:31 10° NW 20:05:00 44° WSW 20:10:32 10° S visible
29 Apr - 09:25:15 10° SSE 09:29:46 23° ESE 09:34:12 10° ENE daylight
29 Apr - 11:09:34 10° SW 11:15:31 75° NW 11:21:24 10° NNE daylight
29 Apr - 12:58:13 10° W 13:02:49 23° NNW 13:07:24 10° NNE daylight
29 Apr - 14:48:41 10° NNW 14:51:28 13° N 14:54:13 10° NNE daylight
29 Apr - 16:36:06 10° NNW 16:40:15 19° NNE 16:44:23 10° ENE daylight
29 Apr - 18:22:05 10° NNW 18:27:50 57° NE 18:33:37 10° SE daylight
29 Apr - 20:08:51 10° NW 20:13:53 31° WSW 20:18:56 10° S visible
30 Apr - 09:33:22 10° S 09:38:34 32° ESE 09:43:43 10° NE daylight
30 Apr - 11:18:49 10° SW 11:24:39 56° NW 11:30:25 10° NNE daylight
30 Apr - 13:08:09 10° WNW 13:12:17 19° NNW 13:16:24 10° NNE daylight
30 Apr - 14:58:18 10° NNW 15:01:05 13° N 15:03:51 10° NNE daylight
30 Apr - 16:45:06 10° NNW 16:49:41 23° NNE 16:54:17 10° E daylight
30 Apr - 18:31:06 10° NW 18:36:58 78° NE 18:42:51 10° SE daylight
30 Apr - 20:18:23 10° WNW 20:22:40 21° WSW 20:26:59 10° SSW visible
01 May - 09:41:48 10° S 09:47:27 46° ESE 09:53:01 10° NE daylight
01 May - 11:28:15 10° WSW 11:33:51 42° NW 11:39:24 10° NNE daylight
01 May - 13:18:09 10° WNW 13:21:48 17° NNW 13:25:26 10° NNE daylight
01 May - 15:07:42 10° NNW 15:10:42 14° N 15:13:41 10° NE daylight
01 May - 16:54:04 10° NNW 16:59:05 28° NE 17:04:06 10° E daylight
01 May - 18:40:10 10° NW 18:46:01 78° WSW 18:51:54 10° SSE daylight
01 May - 20:28:22 10° WNW 20:31:24 15° WSW 20:34:26 10° SW visible
02 May - 08:09:22 10° ESE 08:11:10 11° E 08:12:58 10° E daylight
02 May - 09:50:31 10° SSW 09:56:24 65° ESE 10:02:12 10° NE daylight
02 May - 11:37:51 10° WSW 11:43:08 33° NW 11:48:22 10° NNE daylight
02 May - 13:28:09 10° NW 13:31:21 15° NNW 13:34:34 10° NNE daylight
02 May - 15:16:55 10° NNW 15:20:16 15° NNE 15:23:38 10° NE daylight
02 May - 17:03:02 10° NNW 17:08:24 36° NE 17:13:46 10° ESE daylight
02 May - 18:49:18 10° NW 18:54:59 56° WSW 19:00:44 10° SSE daylight
